Year,Month,Day,Hour,Minute,Value (Times are PST for temperature in C)
2012,10,07,00,00,10.10
2012,10,07,00,01,10.10
2012,10,07,00,02,10.20
2012,10,07,00,03,10.20
2012,10,07,00,04,10.20
2012,10,07,00,05,10.20
2012,10,07,00,06,10.20
2012,10,07,00,07,10.20
2012,10,07,00,08,10.20
2012,10,07,00,09,10.20
2012,10,07,00,10,10.20
2012,10,07,00,11,10.20
2012,10,07,00,12,10.20
2012,10,07,00,13,10.20
2012,10,07,00,14,10.20
2012,10,07,00,15,10.10
2012,10,07,00,16,10.10
2012,10,07,00,17,10.10
2012,10,07,00,18,10.10
2012,10,07,00,19,10.10
2012,10,07,00,20,10.10
2012,10,07,00,21,10.10
2012,10,07,00,22,10.10
2012,10,07,00,23,10.10
2012,10,07,00,24,10.10
2012,10,07,00,25,10.10
2012,10,07,00,26,10.10
2012,10,07,00,27,10.10
2012,10,07,00,28,10.10
2012,10,07,00,29,10.00
2012,10,07,00,30,9.90
2012,10,07,00,31,9.90
2012,10,07,00,32,9.90
2012,10,07,00,33,9.90
2012,10,07,00,34,9.90
2012,10,07,00,35,9.90
2012,10,07,00,36,9.90
2012,10,07,00,37,9.90
2012,10,07,00,38,9.90
2012,10,07,00,39,9.90
2012,10,07,00,40,9.90
2012,10,07,00,41,9.90
2012,10,07,00,42,9.90
2012,10,07,00,43,9.90
2012,10,07,00,44,9.90
2012,10,07,00,45,9.90
2012,10,07,00,46,9.90
2012,10,07,00,47,9.90
2012,10,07,00,48,9.90
2012,10,07,00,49,9.90
2012,10,07,00,50,9.80
2012,10,07,00,51,9.80
2012,10,07,00,52,9.80
2012,10,07,00,53,9.80
2012,10,07,00,54,9.70
2012,10,07,00,55,9.70
2012,10,07,00,56,9.70
2012,10,07,00,57,9.70
2012,10,07,00,58,9.70
2012,10,07,00,59,9.70
2012,10,07,01,00,9.70
2012,10,07,01,01,9.70
2012,10,07,01,02,9.70
2012,10,07,01,03,9.70
2012,10,07,01,04,9.70
2012,10,07,01,05,9.70
2012,10,07,01,06,9.70
2012,10,07,01,07,9.70
2012,10,07,01,08,9.70
2012,10,07,01,09,9.60
2012,10,07,01,10,9.60
2012,10,07,01,11,9.60
2012,10,07,01,12,9.60
2012,10,07,01,13,9.60
2012,10,07,01,14,9.60
2012,10,07,01,15,9.60
2012,10,07,01,16,9.60
2012,10,07,01,17,9.50
2012,10,07,01,18,9.50
2012,10,07,01,19,9.50
2012,10,07,01,20,9.50
2012,10,07,01,21,9.50
2012,10,07,01,22,9.40
2012,10,07,01,23,9.40
2012,10,07,01,24,9.40
2012,10,07,01,25,9.40
2012,10,07,01,26,9.40
2012,10,07,01,27,9.40
2012,10,07,01,28,9.40
2012,10,07,01,29,9.30
2012,10,07,01,30,9.30
2012,10,07,01,31,9.30
2012,10,07,01,32,9.30
2012,10,07,01,33,9.30
2012,10,07,01,34,9.30
2012,10,07,01,35,9.30
2012,10,07,01,36,9.30
2012,10,07,01,37,9.30
2012,10,07,01,38,9.20
2012,10,07,01,39,9.20
2012,10,07,01,40,9.20
2012,10,07,01,41,9.20
2012,10,07,01,42,9.20
2012,10,07,01,43,9.20
2012,10,07,01,44,9.20
2012,10,07,01,45,9.10
2012,10,07,01,46,9.10
2012,10,07,01,47,9.10
2012,10,07,01,48,9.00
2012,10,07,01,49,9.00
2012,10,07,01,50,9.00
2012,10,07,01,51,8.90
2012,10,07,01,52,8.90
2012,10,07,01,53,8.90
2012,10,07,01,54,9.00
2012,10,07,01,55,9.00
2012,10,07,01,56,9.00
2012,10,07,01,57,9.00
2012,10,07,01,58,9.00
2012,10,07,01,59,9.00
2012,10,07,02,00,9.00
2012,10,07,02,01,9.00
2012,10,07,02,02,8.90
2012,10,07,02,03,8.90
2012,10,07,02,04,8.90
2012,10,07,02,05,8.90
2012,10,07,02,06,8.90
2012,10,07,02,07,8.90
2012,10,07,02,08,8.90
2012,10,07,02,09,8.90
2012,10,07,02,10,8.90
2012,10,07,02,11,8.90
2012,10,07,02,12,8.90
2012,10,07,02,13,8.90
2012,10,07,02,14,9.00
2012,10,07,02,15,9.00
2012,10,07,02,16,9.00
2012,10,07,02,17,9.00
2012,10,07,02,18,9.00
2012,10,07,02,19,9.00
2012,10,07,02,20,9.00
2012,10,07,02,21,9.00
2012,10,07,02,22,9.00
2012,10,07,02,23,9.00
2012,10,07,02,24,9.00
2012,10,07,02,25,9.00
2012,10,07,02,26,8.90
2012,10,07,02,27,8.90
2012,10,07,02,28,8.90
2012,10,07,02,29,8.90
2012,10,07,02,30,8.90
2012,10,07,02,31,8.90
2012,10,07,02,32,8.90
2012,10,07,02,33,8.90
2012,10,07,02,34,9.00
2012,10,07,02,35,9.00
2012,10,07,02,36,9.00
2012,10,07,02,37,9.00
2012,10,07,02,38,9.00
2012,10,07,02,39,9.00
2012,10,07,02,40,9.00
2012,10,07,02,41,9.00
2012,10,07,02,42,9.00
2012,10,07,02,43,9.00
2012,10,07,02,44,9.00
2012,10,07,02,45,9.00
2012,10,07,02,46,8.90
2012,10,07,02,47,8.90
2012,10,07,02,48,8.90
2012,10,07,02,49,8.80
2012,10,07,02,50,8.80
2012,10,07,02,51,8.80
2012,10,07,02,52,8.70
2012,10,07,02,53,8.70
2012,10,07,02,54,8.70
2012,10,07,02,55,8.70
2012,10,07,02,56,8.70
2012,10,07,02,57,8.70
2012,10,07,02,58,8.70
2012,10,07,02,59,8.70
2012,10,07,03,00,8.70
2012,10,07,03,01,8.70
2012,10,07,03,02,8.70
2012,10,07,03,03,8.70
2012,10,07,03,04,8.70
2012,10,07,03,05,8.70
2012,10,07,03,06,8.60
2012,10,07,03,07,8.60
2012,10,07,03,08,8.60
2012,10,07,03,09,8.60
2012,10,07,03,10,8.60
2012,10,07,03,11,8.70
2012,10,07,03,12,8.70
2012,10,07,03,13,8.70
2012,10,07,03,14,8.70
2012,10,07,03,15,8.70
2012,10,07,03,16,8.70
2012,10,07,03,17,8.70
2012,10,07,03,18,8.70
2012,10,07,03,19,8.70
2012,10,07,03,20,8.60
2012,10,07,03,21,8.60
2012,10,07,03,22,8.50
2012,10,07,03,23,8.50
2012,10,07,03,24,8.50
2012,10,07,03,25,8.50
2012,10,07,03,26,8.50
2012,10,07,03,27,8.50
2012,10,07,03,28,8.50
2012,10,07,03,29,8.50
2012,10,07,03,30,8.50
2012,10,07,03,31,8.40
2012,10,07,03,32,8.40
2012,10,07,03,33,8.30
2012,10,07,03,34,8.30
2012,10,07,03,35,8.20
2012,10,07,03,36,8.20
2012,10,07,03,37,8.20
2012,10,07,03,38,8.20
2012,10,07,03,39,8.20
2012,10,07,03,40,8.30
2012,10,07,03,41,8.30
2012,10,07,03,42,8.30
2012,10,07,03,43,8.30
2012,10,07,03,44,8.30
2012,10,07,03,45,8.30
2012,10,07,03,46,8.30
2012,10,07,03,47,8.30
2012,10,07,03,48,8.30
2012,10,07,03,49,8.30
2012,10,07,03,50,8.30
2012,10,07,03,51,8.30
2012,10,07,03,52,8.30
2012,10,07,03,53,8.30
2012,10,07,03,54,8.30
2012,10,07,03,55,8.20
2012,10,07,03,56,8.20
2012,10,07,03,57,8.20
2012,10,07,03,58,8.20
2012,10,07,03,59,8.20
2012,10,07,04,00,8.20
2012,10,07,04,01,8.20
2012,10,07,04,02,8.20
2012,10,07,04,03,8.20
2012,10,07,04,04,8.20
2012,10,07,04,05,8.20
2012,10,07,04,06,8.20
2012,10,07,04,07,8.20
2012,10,07,04,08,8.20
2012,10,07,04,09,8.20
2012,10,07,04,10,8.20
2012,10,07,04,11,8.20
2012,10,07,04,12,8.20
2012,10,07,04,13,8.20
2012,10,07,04,14,8.20
2012,10,07,04,15,8.20
2012,10,07,04,16,8.20
2012,10,07,04,17,8.20
2012,10,07,04,18,8.20
2012,10,07,04,19,8.20
2012,10,07,04,20,8.20
2012,10,07,04,21,8.20
2012,10,07,04,22,8.20
2012,10,07,04,23,8.20
2012,10,07,04,24,8.20
2012,10,07,04,25,8.20
2012,10,07,04,26,8.20
2012,10,07,04,27,8.20
2012,10,07,04,28,8.20
2012,10,07,04,29,8.20
2012,10,07,04,30,8.20
2012,10,07,04,31,8.20
2012,10,07,04,32,8.20
2012,10,07,04,33,8.20
2012,10,07,04,34,8.20
2012,10,07,04,35,8.20
2012,10,07,04,36,8.20
2012,10,07,04,37,8.20
2012,10,07,04,38,8.20
2012,10,07,04,39,8.20
2012,10,07,04,40,8.20
2012,10,07,04,41,8.20
2012,10,07,04,42,8.20
2012,10,07,04,43,8.20
2012,10,07,04,44,8.20
2012,10,07,04,45,8.20
2012,10,07,04,46,8.20
2012,10,07,04,47,8.20
2012,10,07,04,48,8.20
2012,10,07,04,49,8.20
2012,10,07,04,50,8.20
2012,10,07,04,51,8.20
2012,10,07,04,52,8.20
2012,10,07,04,53,8.20
2012,10,07,04,54,8.20
2012,10,07,04,55,8.10
2012,10,07,04,56,8.10
2012,10,07,04,57,8.10
2012,10,07,04,58,8.10
2012,10,07,04,59,8.10
2012,10,07,05,00,8.00
2012,10,07,05,01,8.00
2012,10,07,05,02,8.00
2012,10,07,05,03,8.00
2012,10,07,05,04,7.90
2012,10,07,05,05,7.90
2012,10,07,05,06,7.90
2012,10,07,05,07,7.90
2012,10,07,05,08,7.80
2012,10,07,05,09,7.80
2012,10,07,05,10,7.80
2012,10,07,05,11,7.80
2012,10,07,05,12,7.80
2012,10,07,05,13,7.80
2012,10,07,05,14,7.70
2012,10,07,05,15,7.70
2012,10,07,05,16,7.70
2012,10,07,05,17,7.70
2012,10,07,05,18,7.70
2012,10,07,05,19,7.80
2012,10,07,05,20,7.80
2012,10,07,05,21,7.80
2012,10,07,05,22,7.80
2012,10,07,05,23,7.80
2012,10,07,05,24,7.80
2012,10,07,05,25,7.80
2012,10,07,05,26,7.80
2012,10,07,05,27,7.80
2012,10,07,05,28,7.80
2012,10,07,05,29,7.80
2012,10,07,05,30,7.80
2012,10,07,05,31,7.80
2012,10,07,05,32,7.80
2012,10,07,05,33,7.80
2012,10,07,05,34,7.80
2012,10,07,05,35,7.80
2012,10,07,05,36,7.80
2012,10,07,05,37,7.80
2012,10,07,05,38,7.80
2012,10,07,05,39,7.80
2012,10,07,05,40,7.80
2012,10,07,05,41,7.80
2012,10,07,05,42,7.80
2012,10,07,05,43,7.80
2012,10,07,05,44,7.80
2012,10,07,05,45,7.80
2012,10,07,05,46,7.80
2012,10,07,05,47,7.80
2012,10,07,05,48,7.80
2012,10,07,05,49,7.80
2012,10,07,05,50,7.70
2012,10,07,05,51,7.70
2012,10,07,05,52,7.70
2012,10,07,05,53,7.70
2012,10,07,05,54,7.70
2012,10,07,05,55,7.70
2012,10,07,05,56,7.70
2012,10,07,05,57,7.70
2012,10,07,05,58,7.60
2012,10,07,05,59,7.60
2012,10,07,06,00,7.60
2012,10,07,06,01,7.60
2012,10,07,06,02,7.60
2012,10,07,06,03,7.60
2012,10,07,06,04,7.60
2012,10,07,06,05,7.50
2012,10,07,06,06,7.50
2012,10,07,06,07,7.50
2012,10,07,06,08,7.40
2012,10,07,06,09,7.40
2012,10,07,06,10,7.40
2012,10,07,06,11,7.30
2012,10,07,06,12,7.30
2012,10,07,06,13,7.30
2012,10,07,06,14,7.40
2012,10,07,06,15,7.40
2012,10,07,06,16,7.40
2012,10,07,06,17,7.50
2012,10,07,06,18,7.50
2012,10,07,06,19,7.50
2012,10,07,06,20,7.60
2012,10,07,06,21,7.60
2012,10,07,06,22,7.60
2012,10,07,06,23,7.60
2012,10,07,06,24,7.60
2012,10,07,06,25,7.60
2012,10,07,06,26,7.60
2012,10,07,06,27,7.60
2012,10,07,06,28,7.70
2012,10,07,06,29,7.70
2012,10,07,06,30,7.70
2012,10,07,06,31,7.70
2012,10,07,06,32,7.60
2012,10,07,06,33,7.60
2012,10,07,06,34,7.60
2012,10,07,06,35,7.60
2012,10,07,06,36,7.60
2012,10,07,06,37,7.60
2012,10,07,06,38,7.60
2012,10,07,06,39,7.50
2012,10,07,06,40,7.50
2012,10,07,06,41,7.50
2012,10,07,06,42,7.50
2012,10,07,06,43,7.50
2012,10,07,06,44,7.50
2012,10,07,06,45,7.50
2012,10,07,06,46,7.50
2012,10,07,06,47,7.50
2012,10,07,06,48,7.50
2012,10,07,06,49,7.60
2012,10,07,06,50,7.60
2012,10,07,06,51,7.60
2012,10,07,06,52,7.60
2012,10,07,06,53,7.60
2012,10,07,06,54,7.60
2012,10,07,06,55,7.60
2012,10,07,06,56,7.60
2012,10,07,06,57,7.60
2012,10,07,06,58,7.60
2012,10,07,06,59,7.60
2012,10,07,07,00,7.60
2012,10,07,07,01,7.60
2012,10,07,07,02,7.60
2012,10,07,07,03,7.60
2012,10,07,07,04,7.60
2012,10,07,07,05,7.60
2012,10,07,07,06,7.60
2012,10,07,07,07,7.50
2012,10,07,07,08,7.50
2012,10,07,07,09,7.50
2012,10,07,07,10,7.40
2012,10,07,07,11,7.40
2012,10,07,07,12,7.30
2012,10,07,07,13,7.30
2012,10,07,07,14,7.30
2012,10,07,07,15,7.30
2012,10,07,07,16,7.20
2012,10,07,07,17,7.20
2012,10,07,07,18,7.20
2012,10,07,07,19,7.20
2012,10,07,07,20,7.20
2012,10,07,07,21,7.20
2012,10,07,07,22,7.20
2012,10,07,07,23,7.10
2012,10,07,07,24,7.10
2012,10,07,07,25,7.10
2012,10,07,07,26,7.10
2012,10,07,07,27,7.10
2012,10,07,07,28,7.10
2012,10,07,07,29,7.10
2012,10,07,07,30,7.00
2012,10,07,07,31,7.00
2012,10,07,07,32,7.00
2012,10,07,07,33,7.00
2012,10,07,07,34,7.00
2012,10,07,07,35,7.00
2012,10,07,07,36,7.00
2012,10,07,07,37,7.10
2012,10,07,07,38,7.10
2012,10,07,07,39,7.10
2012,10,07,07,40,7.10
2012,10,07,07,41,7.00
2012,10,07,07,42,7.00
2012,10,07,07,43,7.00
2012,10,07,07,44,7.00
2012,10,07,07,45,7.00
2012,10,07,07,46,7.00
2012,10,07,07,47,7.00
2012,10,07,07,48,7.00
2012,10,07,07,49,6.90
2012,10,07,07,50,6.90
2012,10,07,07,51,6.90
2012,10,07,07,52,6.90
2012,10,07,07,53,6.90
2012,10,07,07,54,7.00
2012,10,07,07,55,7.00
2012,10,07,07,56,7.00
2012,10,07,07,57,7.00
2012,10,07,07,58,7.00
2012,10,07,07,59,7.10
2012,10,07,08,00,7.10
2012,10,07,08,01,7.20
2012,10,07,08,02,7.30
2012,10,07,08,03,7.50
2012,10,07,08,04,7.60
2012,10,07,08,05,7.70
2012,10,07,08,06,7.80
2012,10,07,08,07,7.90
2012,10,07,08,08,8.00
2012,10,07,08,09,8.10
2012,10,07,08,10,8.20
2012,10,07,08,11,8.20
2012,10,07,08,12,8.30
2012,10,07,08,13,8.40
2012,10,07,08,14,8.40
2012,10,07,08,15,8.40
2012,10,07,08,16,8.40
2012,10,07,08,17,8.40
2012,10,07,08,18,8.40
2012,10,07,08,19,8.30
2012,10,07,08,20,8.30
2012,10,07,08,21,8.30
2012,10,07,08,22,8.30
2012,10,07,08,23,8.30
2012,10,07,08,24,8.30
2012,10,07,08,25,8.40
2012,10,07,08,26,8.40
2012,10,07,08,27,8.40
2012,10,07,08,28,8.50
2012,10,07,08,29,8.50
2012,10,07,08,30,8.60
2012,10,07,08,31,8.70
2012,10,07,08,32,8.80
2012,10,07,08,33,8.80
2012,10,07,08,34,8.90
2012,10,07,08,35,8.90
2012,10,07,08,36,9.00
2012,10,07,08,37,9.10
2012,10,07,08,38,9.10
2012,10,07,08,39,9.20
2012,10,07,08,40,9.20
2012,10,07,08,41,9.20
2012,10,07,08,42,9.30
2012,10,07,08,43,9.40
2012,10,07,08,44,9.50
2012,10,07,08,45,9.50
2012,10,07,08,46,9.60
2012,10,07,08,47,9.60
2012,10,07,08,48,9.70
2012,10,07,08,49,9.70
2012,10,07,08,50,9.70
2012,10,07,08,51,9.70
2012,10,07,08,52,9.80
2012,10,07,08,53,9.80
2012,10,07,08,54,9.80
2012,10,07,08,55,9.90
2012,10,07,08,56,9.90
2012,10,07,08,57,10.00
2012,10,07,08,58,10.20
2012,10,07,08,59,10.30
2012,10,07,09,00,10.40
2012,10,07,09,01,10.40
2012,10,07,09,02,10.50
2012,10,07,09,03,10.60
2012,10,07,09,04,10.60
2012,10,07,09,05,10.60
2012,10,07,09,06,10.70
2012,10,07,09,07,10.80
2012,10,07,09,08,10.90
2012,10,07,09,09,11.00
2012,10,07,09,10,11.10
2012,10,07,09,11,11.20
2012,10,07,09,12,11.30
2012,10,07,09,13,11.40
2012,10,07,09,14,11.40
2012,10,07,09,15,11.60
2012,10,07,09,16,11.60
2012,10,07,09,17,11.60
2012,10,07,09,18,11.70
2012,10,07,09,19,11.80
2012,10,07,09,20,11.80
2012,10,07,09,21,11.90
2012,10,07,09,22,12.00
2012,10,07,09,23,12.10
2012,10,07,09,24,12.20
2012,10,07,09,25,12.30
2012,10,07,09,26,12.30
2012,10,07,09,27,12.30
2012,10,07,09,28,12.30
2012,10,07,09,29,12.30
2012,10,07,09,30,12.30
2012,10,07,09,31,12.30
2012,10,07,09,32,12.30
2012,10,07,09,33,12.20
2012,10,07,09,34,12.10
2012,10,07,09,35,12.10
2012,10,07,09,36,12.00
2012,10,07,09,37,11.90
2012,10,07,09,38,11.80
2012,10,07,09,39,11.80
2012,10,07,09,40,11.80
2012,10,07,09,41,11.70
2012,10,07,09,42,11.70
2012,10,07,09,43,11.70
2012,10,07,09,44,11.70
2012,10,07,09,45,11.70
2012,10,07,09,46,11.60
2012,10,07,09,47,11.60
2012,10,07,09,48,11.60
2012,10,07,09,49,11.60
2012,10,07,09,50,11.50
2012,10,07,09,51,11.50
2012,10,07,09,52,11.60
2012,10,07,09,53,11.60
2012,10,07,09,54,11.60
2012,10,07,09,55,11.60
2012,10,07,09,56,11.60
2012,10,07,09,57,11.70
2012,10,07,09,58,11.70
2012,10,07,09,59,11.80
2012,10,07,10,00,11.80
2012,10,07,10,01,11.80
2012,10,07,10,02,11.80
2012,10,07,10,03,11.80
2012,10,07,10,04,11.80
2012,10,07,10,05,11.80
2012,10,07,10,06,11.80
2012,10,07,10,07,11.80
2012,10,07,10,08,11.80
2012,10,07,10,09,11.90
2012,10,07,10,10,11.90
2012,10,07,10,11,12.00
2012,10,07,10,12,12.10
2012,10,07,10,13,12.10
2012,10,07,10,14,12.10
2012,10,07,10,15,12.10
2012,10,07,10,16,12.10
2012,10,07,10,17,12.10
2012,10,07,10,18,12.10
2012,10,07,10,19,12.10
2012,10,07,10,20,12.20
2012,10,07,10,21,12.20
2012,10,07,10,22,12.30
2012,10,07,10,23,12.30
2012,10,07,10,24,12.30
2012,10,07,10,25,12.30
2012,10,07,10,26,12.30
2012,10,07,10,27,12.20
2012,10,07,10,28,12.20
2012,10,07,10,29,12.20
2012,10,07,10,30,12.20
2012,10,07,10,31,12.20
2012,10,07,10,32,12.20
2012,10,07,10,33,12.20
2012,10,07,10,34,12.20
2012,10,07,10,35,12.30
2012,10,07,10,36,12.30
2012,10,07,10,37,12.40
2012,10,07,10,38,12.40
2012,10,07,10,39,12.50
2012,10,07,10,40,12.50
2012,10,07,10,41,12.60
2012,10,07,10,42,12.60
2012,10,07,10,43,12.60
2012,10,07,10,44,12.50
2012,10,07,10,45,12.50
2012,10,07,10,46,12.40
2012,10,07,10,47,12.40
2012,10,07,10,48,12.30
2012,10,07,10,49,12.40
2012,10,07,10,50,12.40
2012,10,07,10,51,12.40
2012,10,07,10,52,12.40
2012,10,07,10,53,12.40
2012,10,07,10,54,12.50
2012,10,07,10,55,12.50
2012,10,07,10,56,12.60
2012,10,07,10,57,12.60
2012,10,07,10,58,12.70
2012,10,07,10,59,12.70
2012,10,07,11,00,12.80
2012,10,07,11,01,12.80
2012,10,07,11,02,12.80
2012,10,07,11,03,12.90
2012,10,07,11,04,13.00
2012,10,07,11,05,13.00
2012,10,07,11,06,13.10
2012,10,07,11,07,13.20
2012,10,07,11,08,13.20
2012,10,07,11,09,13.10
2012,10,07,11,10,13.10
2012,10,07,11,11,13.00
2012,10,07,11,12,12.80
2012,10,07,11,13,12.70
2012,10,07,11,14,12.60
2012,10,07,11,15,12.60
2012,10,07,11,16,12.50
2012,10,07,11,17,12.60
2012,10,07,11,18,12.50
2012,10,07,11,19,12.50
2012,10,07,11,20,12.50
2012,10,07,11,21,12.50
2012,10,07,11,22,12.40
2012,10,07,11,23,12.40
2012,10,07,11,24,12.40
2012,10,07,11,25,12.40
2012,10,07,11,26,12.30
2012,10,07,11,27,12.30
2012,10,07,11,28,12.30
2012,10,07,11,29,12.30
2012,10,07,11,30,12.30
2012,10,07,11,31,12.20
2012,10,07,11,32,12.20
2012,10,07,11,33,12.30
2012,10,07,11,34,12.30
2012,10,07,11,35,12.40
2012,10,07,11,36,12.50
2012,10,07,11,37,12.60
2012,10,07,11,38,12.70
2012,10,07,11,39,12.80
2012,10,07,11,40,12.80
2012,10,07,11,41,12.80
2012,10,07,11,42,12.80
2012,10,07,11,43,12.80
2012,10,07,11,44,12.90
2012,10,07,11,45,13.00
2012,10,07,11,46,13.00
2012,10,07,11,47,13.10
2012,10,07,11,48,13.10
2012,10,07,11,49,13.10
2012,10,07,11,50,13.20
2012,10,07,11,51,13.20
2012,10,07,11,52,13.20
2012,10,07,11,53,13.30
2012,10,07,11,54,13.40
2012,10,07,11,55,13.50
2012,10,07,11,56,13.60
2012,10,07,11,57,13.50
2012,10,07,11,58,13.50
2012,10,07,11,59,13.40
2012,10,07,12,00,13.40
2012,10,07,12,01,13.40
2012,10,07,12,02,13.40
2012,10,07,12,03,13.50
2012,10,07,12,04,13.50
2012,10,07,12,05,13.40
2012,10,07,12,06,13.40
2012,10,07,12,07,13.30
2012,10,07,12,08,13.20
2012,10,07,12,09,13.10
2012,10,07,12,10,13.10
2012,10,07,12,11,13.00
2012,10,07,12,12,12.90
2012,10,07,12,13,12.90
2012,10,07,12,14,13.00
2012,10,07,12,15,13.00
2012,10,07,12,16,13.10
2012,10,07,12,17,13.20
2012,10,07,12,18,13.20
2012,10,07,12,19,13.20
2012,10,07,12,20,13.30
2012,10,07,12,21,13.30
2012,10,07,12,22,13.30
2012,10,07,12,23,13.30
2012,10,07,12,24,13.30
2012,10,07,12,25,13.30
2012,10,07,12,26,13.20
2012,10,07,12,27,13.20
2012,10,07,12,28,13.10
2012,10,07,12,29,13.10
2012,10,07,12,30,13.20
2012,10,07,12,31,13.20
2012,10,07,12,32,13.30
2012,10,07,12,33,13.40
2012,10,07,12,34,13.50
2012,10,07,12,35,13.60
2012,10,07,12,36,13.70
2012,10,07,12,37,13.70
2012,10,07,12,38,13.90
2012,10,07,12,39,13.90
2012,10,07,12,40,14.00
2012,10,07,12,41,14.10
2012,10,07,12,42,14.20
2012,10,07,12,43,14.20
2012,10,07,12,44,14.20
2012,10,07,12,45,14.30
2012,10,07,12,46,14.40
2012,10,07,12,47,14.50
2012,10,07,12,48,14.60
2012,10,07,12,49,14.70
2012,10,07,12,50,14.80
2012,10,07,12,51,14.90
2012,10,07,12,52,15.00
2012,10,07,12,53,15.10
2012,10,07,12,54,15.10
2012,10,07,12,55,15.20
2012,10,07,12,56,15.30
2012,10,07,12,57,15.40
2012,10,07,12,58,15.40
2012,10,07,12,59,15.30
2012,10,07,13,00,15.30
2012,10,07,13,01,15.30
2012,10,07,13,02,15.30
2012,10,07,13,03,15.30
2012,10,07,13,04,15.30
2012,10,07,13,05,15.40
2012,10,07,13,06,15.40
2012,10,07,13,07,15.40
2012,10,07,13,08,15.40
2012,10,07,13,09,15.40
2012,10,07,13,10,15.40
2012,10,07,13,11,15.30
2012,10,07,13,12,15.20
2012,10,07,13,13,15.00
2012,10,07,13,14,15.00
2012,10,07,13,15,14.90
2012,10,07,13,16,14.90
2012,10,07,13,17,14.80
2012,10,07,13,18,14.70
2012,10,07,13,19,14.60
2012,10,07,13,20,14.60
2012,10,07,13,21,14.70
2012,10,07,13,22,14.80
2012,10,07,13,23,14.80
2012,10,07,13,24,14.80
2012,10,07,13,25,14.80
2012,10,07,13,26,14.80
2012,10,07,13,27,14.80
2012,10,07,13,28,14.80
2012,10,07,13,29,14.80
2012,10,07,13,30,14.90
2012,10,07,13,31,14.80
2012,10,07,13,32,14.80
2012,10,07,13,33,14.70
2012,10,07,13,34,14.50
2012,10,07,13,35,14.40
2012,10,07,13,36,14.30
2012,10,07,13,37,14.30
2012,10,07,13,38,14.30
2012,10,07,13,39,14.40
2012,10,07,13,40,14.40
2012,10,07,13,41,14.30
2012,10,07,13,42,14.30
2012,10,07,13,43,14.30
2012,10,07,13,44,14.20
2012,10,07,13,45,14.20
2012,10,07,13,46,14.20
2012,10,07,13,47,14.30
2012,10,07,13,48,14.40
2012,10,07,13,49,14.40
2012,10,07,13,50,14.20
2012,10,07,13,51,14.20
2012,10,07,13,52,14.20
2012,10,07,13,53,14.20
2012,10,07,13,54,14.20
2012,10,07,13,55,14.20
2012,10,07,13,56,14.20
2012,10,07,13,57,14.20
2012,10,07,13,58,14.20
2012,10,07,13,59,14.20
2012,10,07,14,00,14.20
2012,10,07,14,01,14.20
2012,10,07,14,02,14.20
2012,10,07,14,03,14.20
2012,10,07,14,04,14.30
2012,10,07,14,05,14.50
2012,10,07,14,06,14.50
2012,10,07,14,07,14.60
2012,10,07,14,08,14.80
2012,10,07,14,09,14.90
2012,10,07,14,10,15.10
2012,10,07,14,11,15.20
2012,10,07,14,12,15.30
2012,10,07,14,13,15.40
2012,10,07,14,14,15.40
2012,10,07,14,15,15.50
2012,10,07,14,16,15.60
2012,10,07,14,17,15.60
2012,10,07,14,18,15.70
2012,10,07,14,19,15.70
2012,10,07,14,20,15.70
2012,10,07,14,21,15.60
2012,10,07,14,22,15.50
2012,10,07,14,23,15.50
2012,10,07,14,24,15.50
2012,10,07,14,25,15.60
2012,10,07,14,26,15.60
2012,10,07,14,27,15.60
2012,10,07,14,28,15.70
2012,10,07,14,29,15.90
2012,10,07,14,30,16.00
2012,10,07,14,31,16.10
2012,10,07,14,32,16.10
2012,10,07,14,33,16.10
2012,10,07,14,34,16.10
2012,10,07,14,35,16.00
2012,10,07,14,36,16.10
2012,10,07,14,37,16.10
2012,10,07,14,38,16.20
2012,10,07,14,39,16.20
2012,10,07,14,40,16.30
2012,10,07,14,41,16.30
2012,10,07,14,42,16.30
2012,10,07,14,43,16.30
2012,10,07,14,44,16.40
2012,10,07,14,45,16.40
2012,10,07,14,46,16.40
2012,10,07,14,47,16.30
2012,10,07,14,48,16.00
2012,10,07,14,49,15.60
2012,10,07,14,50,15.30
2012,10,07,14,51,14.90
2012,10,07,14,52,14.70
2012,10,07,14,53,14.60
2012,10,07,14,54,14.50
2012,10,07,14,55,14.40
2012,10,07,14,56,14.20
2012,10,07,14,57,13.90
2012,10,07,14,58,13.90
2012,10,07,14,59,13.90
2012,10,07,15,00,14.00
2012,10,07,15,01,14.00
2012,10,07,15,02,14.00
2012,10,07,15,03,13.90
2012,10,07,15,04,13.90
2012,10,07,15,05,13.80
2012,10,07,15,06,13.80
2012,10,07,15,07,13.70
2012,10,07,15,08,13.70
2012,10,07,15,09,13.70
2012,10,07,15,10,13.70
2012,10,07,15,11,13.70
2012,10,07,15,12,13.70
2012,10,07,15,13,13.80
2012,10,07,15,14,13.70
2012,10,07,15,15,13.70
2012,10,07,15,16,13.70
2012,10,07,15,17,13.70
2012,10,07,15,18,13.70
2012,10,07,15,19,13.60
2012,10,07,15,20,13.60
2012,10,07,15,21,13.60
2012,10,07,15,22,13.50
2012,10,07,15,23,13.40
2012,10,07,15,24,13.40
2012,10,07,15,25,13.40
2012,10,07,15,26,13.40
2012,10,07,15,27,13.40
2012,10,07,15,28,13.40
2012,10,07,15,29,13.40
2012,10,07,15,30,13.50
2012,10,07,15,31,13.50
2012,10,07,15,32,13.60
2012,10,07,15,33,13.60
2012,10,07,15,34,13.60
2012,10,07,15,35,13.60
2012,10,07,15,36,13.60
2012,10,07,15,37,13.50
2012,10,07,15,38,13.40
2012,10,07,15,39,13.40
2012,10,07,15,40,13.40
2012,10,07,15,41,13.40
2012,10,07,15,42,13.40
2012,10,07,15,43,13.40
2012,10,07,15,44,13.40
2012,10,07,15,45,13.40
2012,10,07,15,46,13.30
2012,10,07,15,47,13.30
2012,10,07,15,48,13.30
2012,10,07,15,49,13.30
2012,10,07,15,50,13.30
2012,10,07,15,51,13.40
2012,10,07,15,52,13.50
2012,10,07,15,53,13.50
2012,10,07,15,54,13.60
2012,10,07,15,55,13.70
2012,10,07,15,56,13.70
2012,10,07,15,57,13.80
2012,10,07,15,58,13.90
2012,10,07,15,59,14.00
2012,10,07,16,00,14.10
2012,10,07,16,01,14.20
2012,10,07,16,02,14.30
2012,10,07,16,03,14.40
2012,10,07,16,04,14.50
2012,10,07,16,05,14.50
2012,10,07,16,06,14.60
2012,10,07,16,07,14.80
2012,10,07,16,08,14.80
2012,10,07,16,09,14.90
2012,10,07,16,10,14.90
2012,10,07,16,11,15.00
2012,10,07,16,12,15.00
2012,10,07,16,13,15.00
2012,10,07,16,14,15.10
2012,10,07,16,15,15.20
2012,10,07,16,16,15.20
2012,10,07,16,17,15.30
2012,10,07,16,18,15.40
2012,10,07,16,19,15.50
2012,10,07,16,20,15.50
2012,10,07,16,21,15.60
2012,10,07,16,22,15.60
2012,10,07,16,23,15.60
2012,10,07,16,24,15.60
2012,10,07,16,25,15.70
2012,10,07,16,26,15.80
2012,10,07,16,27,15.90
2012,10,07,16,28,16.10
2012,10,07,16,29,16.20
2012,10,07,16,30,16.30
2012,10,07,16,31,16.40
2012,10,07,16,32,16.40
2012,10,07,16,33,16.40
2012,10,07,16,34,16.40
2012,10,07,16,35,16.40
2012,10,07,16,36,16.40
2012,10,07,16,37,16.40
2012,10,07,16,38,16.40
2012,10,07,16,39,16.40
2012,10,07,16,40,16.40
2012,10,07,16,41,16.40
2012,10,07,16,42,16.40
2012,10,07,16,43,16.40
2012,10,07,16,44,16.40
2012,10,07,16,45,16.40
2012,10,07,16,46,16.30
2012,10,07,16,47,16.30
2012,10,07,16,48,16.20
2012,10,07,16,49,16.10
2012,10,07,16,50,16.10
2012,10,07,16,51,16.10
2012,10,07,16,52,16.10
2012,10,07,16,53,16.10
2012,10,07,16,54,16.10
2012,10,07,16,55,16.10
2012,10,07,16,56,16.10
2012,10,07,16,57,16.10
2012,10,07,16,58,16.10
2012,10,07,16,59,16.10
2012,10,07,17,00,16.10
2012,10,07,17,01,16.10
2012,10,07,17,02,16.10
2012,10,07,17,03,16.10
2012,10,07,17,04,16.10
2012,10,07,17,05,16.10
2012,10,07,17,06,16.10
2012,10,07,17,07,16.10
2012,10,07,17,08,16.20
2012,10,07,17,09,16.20
2012,10,07,17,10,16.20
2012,10,07,17,11,16.20
2012,10,07,17,12,16.30
2012,10,07,17,13,16.30
2012,10,07,17,14,16.40
2012,10,07,17,15,16.40
2012,10,07,17,16,16.40
2012,10,07,17,17,16.40
2012,10,07,17,18,16.40
2012,10,07,17,19,16.40
2012,10,07,17,20,16.40
2012,10,07,17,21,16.40
2012,10,07,17,22,16.30
2012,10,07,17,23,16.30
2012,10,07,17,24,16.30
2012,10,07,17,25,16.30
2012,10,07,17,26,16.30
2012,10,07,17,27,16.30
2012,10,07,17,28,16.30
2012,10,07,17,29,16.30
2012,10,07,17,30,16.30
2012,10,07,17,31,16.20
2012,10,07,17,32,16.20
2012,10,07,17,33,16.30
2012,10,07,17,34,16.30
2012,10,07,17,35,16.40
2012,10,07,17,36,16.40
2012,10,07,17,37,16.60
2012,10,07,17,38,16.70
2012,10,07,17,39,16.80
2012,10,07,17,40,16.90
2012,10,07,17,41,17.00